Find Starlink 3075

NORAD ID: 49409 Int'l Des: 2021-104 Owner: SPXS Country: US Constellation: starlink operational
LEOCIRCULAR

Current View

Loading 3D Globe...

About Starlink 3075

Starlink 3075 (NORAD 49409) is a starlink constellation satellite (v1.5) launched Nov 13, 2021 by SPXS of US. It operates in LEO, CIRCULAR orbit with a mass of 290.00 kg.

Upcoming Passes

Passes for default location (London). Set your location on the main map for personalized predictions.

Altitude History

Loading altitude history...

Two-Line Element Set

1 49409U 21104B 26254.02363146 .00001065 00000-0 43704-4 0 9992
2 49409 53.1602 104.1441 0001256 83.0538 277.0607 15.33550563266796
Epoch: Sep 11, 2026 • Age: 10 hours

Current Status

Altitude 465.2 km
Apogee / Perigee N/A
Velocity 7.64 km/s
Sub-Earth Point 14.68°N, 120.66°E
Launch Date Nov 13, 2021
Age 4.8 years
Type internet

Technical Details

Classification Payload
Mass 290.00 kg
Dry Mass 270.00 kg
Total Mass 290.00 kg
Length 0.20 m
Diameter 2.80 m
Span 9.00 m
Shape Box + pan
Manufacturer SPXS
Bus Type Starlink
Phase Status In Orbit
Owner/State SPXS/US

Most Searched